Date String (YYYY-MM-DD hh:mm:ss) UTC,Instrument flags,Ambient pressure (hPa),Sample flow (lpm),Bypass flow (lpm),Sample temperature (°C),Ambient temperature (°C),ASC tube jacket temperature (°C),LED temperature (°C),Box temperature (°C),Sample RH (%),Span deviation,Mass concentration (μg/m³),Mass concentration (μg/m³),Mass concentration (μg/m³)
DateTimeUTC,F1_M11,P_M11,Q1_M11,Q2_M11,T1_M11,T2_M11,T3_M11,T4_M11,T5_M11,U1_M11,ZSPAN_M11,X2_M11,X0_M11,X1_M11
2023-03-08 16:00:00,,0827.2,5.00,0.00,22.6,20.9,00.0,31.4,24.3,16.1,-001.2,0011.52,0015.30,0011.14
2023-03-08 16:01:00,,0827.2,4.99,0.00,22.6,20.9,00.0,31.3,24.3,16.2,-001.3,0011.52,0015.29,0011.15
2023-03-08 16:02:00,,0827.2,4.99,0.00,22.6,20.9,00.0,31.3,24.3,16.2,-001.4,0011.49,0015.24,0011.12
2023-03-08 16:03:00,,0827.0,5.00,0.00,22.5,20.9,00.0,31.3,24.3,16.2,-001.5,0011.49,0015.25,0011.09
2023-03-08 16:04:00,,0827.0,5.00,0.00,22.5,20.8,00.0,31.3,24.2,16.2,-001.7,0011.47,0014.47,0011.06
2023-03-08 16:05:00,,0827.0,5.02,0.00,22.5,20.8,00.0,31.3,24.2,16.3,-001.7,0011.49,0014.48,0011.07
2023-03-08 16:06:00,,0827.0,4.99,0.00,22.5,20.8,00.0,31.3,24.2,16.4,-001.8,0011.51,0014.50,0011.08
2023-03-08 16:07:00,,0827.0,4.99,0.00,22.5,20.8,00.0,31.3,24.2,16.4,-001.8,0011.49,0014.30,0011.10
2023-03-08 16:08:00,,0827.0,5.02,0.00,22.5,20.8,00.0,31.3,24.2,16.3,-001.8,0011.50,0014.27,0011.12
2023-03-08 16:09:00,,0827.0,5.02,0.00,22.5,21.7,00.0,31.2,24.4,16.3,-002.0,0011.49,0014.26,0011.12
2023-03-08 16:10:00,,0827.0,5.02,0.00,22.6,22.8,00.0,31.2,24.6,16.2,-002.1,0011.47,0014.24,0011.10
2023-03-08 16:11:00,,0827.1,4.98,0.00,22.7,23.4,00.0,31.3,24.8,16.1,-002.2,0011.47,0014.27,0011.10
2023-03-08 16:12:00,,0827.0,5.00,0.00,22.8,23.0,00.0,31.3,24.8,16.1,-002.0,0011.45,0014.31,0011.08
2023-03-08 16:13:00,,0827.2,4.98,0.00,22.8,22.6,00.0,31.4,24.7,16.1,-002.1,0011.45,0014.92,0011.09
2023-03-08 16:14:00,,0827.3,5.02,0.00,22.8,22.3,00.0,31.4,24.7,16.1,-002.2,0011.42,0014.83,0011.08
2023-03-08 16:15:00,,0827.3,5.00,0.00,22.8,22.0,00.0,31.4,24.6,16.1,-002.1,0011.42,0014.76,0011.09
2023-03-08 16:16:00,,0827.0,5.01,0.00,22.8,21.8,00.0,31.4,24.6,16.0,-002.1,0011.45,0015.04,0011.10
2023-03-08 16:17:00,,0827.1,5.01,0.00,22.8,21.6,00.0,31.4,24.6,16.0,-002.0,0011.46,0015.10,0011.13
2023-03-08 16:18:00,,0827.1,5.01,0.00,22.8,21.5,00.0,31.4,24.5,16.0,-001.9,0011.47,0015.11,0011.11
2023-03-08 16:19:00,,0827.2,5.00,0.00,22.8,21.4,00.0,31.4,24.5,16.0,-002.0,0011.47,0015.06,0011.11
2023-03-08 16:20:00,,0827.1,5.01,0.00,22.8,21.3,00.0,31.4,24.5,16.0,-002.0,0011.48,0015.11,0011.12
2023-03-08 16:21:00,,0826.9,5.01,0.00,22.7,21.2,00.0,31.4,24.5,16.0,-001.9,0011.55,0015.27,0011.16
2023-03-08 16:22:00,,0827.2,5.00,0.00,22.7,21.1,00.0,31.4,24.5,16.1,-002.0,0011.55,0015.27,0011.17
2023-03-08 16:23:00,,0827.1,5.02,0.00,22.7,21.1,00.0,31.4,24.4,15.9,-002.1,0011.55,0015.22,0011.17
2023-03-08 16:24:00,,0827.0,5.00,0.00,22.7,21.0,00.0,31.4,24.4,15.8,-002.0,0011.57,0014.99,0011.16
2023-03-08 16:25:00,,0827.2,5.00,0.00,22.7,20.9,00.0,31.4,24.4,15.8,-001.8,0011.62,0015.73,0011.18
2023-03-08 16:26:00,,0827.0,5.00,0.00,22.6,20.8,00.0,31.4,24.3,15.9,-001.9,0011.65,0015.88,0011.20
2023-03-08 16:27:00,,0827.2,5.00,0.00,22.6,20.8,00.0,31.4,24.2,16.0,-001.9,0011.70,0015.77,0011.22
2023-03-08 16:28:00,,0826.9,5.00,0.00,22.6,20.8,00.0,31.4,24.3,16.1,-001.8,0011.68,0015.64,0011.21
2023-03-08 16:29:00,,0826.8,5.00,0.00,22.6,20.9,00.0,31.3,24.3,16.0,-001.9,0011.70,0015.73,0011.22
2023-03-08 16:30:00,,0826.9,5.01,0.00,22.5,20.8,00.0,31.3,24.2,16.0,-001.7,0011.72,0015.78,0011.24
2023-03-08 16:31:00,,0826.9,4.99,0.00,22.5,20.8,00.0,31.3,24.2,16.0,-001.6,0011.73,0015.76,0011.25
2023-03-08 16:32:00,,0827.0,5.00,0.00,22.5,20.9,00.0,31.3,24.2,15.8,-001.6,0011.70,0015.65,0011.24
2023-03-08 16:33:00,,0826.9,5.00,0.00,22.4,20.9,00.0,31.3,24.1,15.7,-001.8,0011.69,0015.59,0011.24
2023-03-08 16:34:00,,0827.0,4.99,0.00,22.4,20.8,00.0,31.3,24.1,15.8,-001.8,0011.70,0015.57,0011.26
2023-03-08 16:35:00,,0827.1,5.00,0.00,22.4,20.7,00.0,31.2,24.1,15.9,-001.8,0011.74,0015.51,0011.29
2023-03-08 16:36:00,,0826.9,5.01,0.00,22.4,20.7,00.0,31.2,24.1,16.3,-001.8,0011.75,0014.75,0011.32
2023-03-08 16:37:00,,0827.4,5.03,0.00,22.4,21.4,00.0,31.2,24.2,16.5,-001.6,0011.76,0014.64,0011.34
2023-03-08 16:38:00,,0827.3,5.01,0.00,22.5,22.5,00.0,31.2,24.5,16.5,-001.5,0011.76,0014.73,0011.34
2023-03-08 16:39:00,,0827.1,4.98,0.00,22.6,23.3,00.0,31.2,24.7,16.4,-001.7,0011.73,0015.06,0011.35
2023-03-08 16:40:00,,0826.9,4.99,0.00,22.7,23.0,00.0,31.3,24.7,16.2,-001.8,0011.72,0015.01,0011.34
2023-03-08 16:41:00,,0826.8,5.02,0.00,22.7,22.6,00.0,31.3,24.6,16.1,-002.0,0011.75,0015.03,0011.36
2023-03-08 16:42:00,,0826.7,5.01,0.00,22.7,22.2,00.0,31.3,24.6,16.1,-002.1,0011.72,0014.92,0011.35
2023-03-08 16:43:00,,0826.8,5.00,0.00,22.7,21.9,00.0,31.3,24.5,16.2,-002.0,0011.72,0014.87,0011.36
2023-03-08 16:44:00,,0826.8,5.01,0.00,22.7,21.7,00.0,31.4,24.5,16.3,-002.0,0011.72,0014.86,0011.38
2023-03-08 16:45:00,,0826.8,5.00,0.00,22.7,21.4,00.0,31.4,24.4,16.2,-001.7,0011.71,0014.81,0011.39
2023-03-08 16:46:00,,0826.8,4.99,0.00,22.7,21.2,00.0,31.4,24.3,16.0,-001.6,0011.76,0014.93,0011.40
2023-03-08 16:47:00,,0826.8,5.00,0.00,22.6,21.0,00.0,31.3,24.3,16.0,-001.7,0011.74,0014.85,0011.40
2023-03-08 16:48:00,,0826.8,5.00,0.00,22.6,20.9,00.0,31.3,24.3,16.1,-002.0,0011.72,0014.78,0011.39
2023-03-08 16:49:00,,0826.8,5.00,0.00,22.6,20.8,00.0,31.3,24.2,16.2,-002.2,0011.73,0014.71,0011.39
2023-03-08 16:50:00,,0826.8,5.01,0.00,22.6,20.8,00.0,31.3,24.2,16.2,-002.2,0011.77,0014.32,0011.39
2023-03-08 16:51:00,,0826.7,4.99,0.00,22.5,20.8,00.0,31.3,24.2,16.3,-002.2,0011.80,0014.43,0011.41
2023-03-08 16:52:00,,0826.7,5.00,0.00,22.5,20.8,00.0,31.3,24.2,16.6,-002.1,0011.81,0014.41,0011.45
2023-03-08 16:53:00,,0826.7,4.99,0.00,22.5,20.8,00.0,31.3,24.1,16.5,-002.2,0011.88,0014.55,0011.51
2023-03-08 16:54:00,,0826.7,5.00,0.00,22.4,20.7,00.0,31.3,24.1,16.4,-002.3,0011.94,0014.64,0011.54
2023-03-08 16:55:00,,0826.7,5.00,0.00,22.4,20.6,00.0,31.3,24.1,16.1,-002.3,0012.00,0014.79,0011.57
2023-03-08 16:56:00,,0826.7,4.99,0.00,22.4,20.5,00.0,31.2,24.0,15.8,-002.5,0012.04,0014.87,0011.59
2023-03-08 16:57:00,,0826.7,5.00,0.00,22.4,20.5,00.0,31.2,24.0,15.5,-002.7,0012.02,0014.82,0011.61
2023-03-08 16:58:00,,0826.7,5.02,0.00,22.4,21.4,00.0,31.2,24.2,15.3,-002.7,0012.03,0014.81,0011.63
2023-03-08 16:59:00,,0826.6,4.99,0.00,22.5,22.6,00.0,31.2,24.5,15.2,-002.5,0012.05,0014.84,0011.64
